Location: Unspecified
(0.0000°N, 0.0000°E)
Time: 13:46:57
(UTC+00:00)

N. Korean satellite - Pass Details

Date: 16 October 2017
Orbit: 459 x 517 km, 97.2° (Epoch: 21 October)

Event Time Altitude Azimuth Distance (km) Brightness Sun altitude
Rises 19:16:05 0° 201° (SSW) 2,603 10.7 -22.3°
Reaches altitude 10° 19:19:05 10° 228° (SW) 1,703 10.1 -23.1°
Maximum altitude 19:20:55 13° 258° (WSW) 1,491 10.0 -23.5°
Drops below altitude 10° 19:22:44 10° 289° (WNW) 1,682 10.1 -24.0°
Sets 19:25:41 0° 316° (NW) 2,545 10.7 -24.7°
